Regional Weather Roundup
Issued by NWS

Home | Current Version | Previous Version | Graphics & Text | Print | Product List | Glossary Off
Versions: 1 2 3 4 5 6 7 8 9 10 11 12 13 14 15 16 17 18 19 20 21 22 23 24 25 26 27 28 29 30 31 32 33 34 35 36 37 38 39 40 41 42 43 44 45 46 47 48 49 50

253
ASUS43 KBIS 261510
RWRND

NORTH DAKOTA REGIONAL WEATHER ROUNDUP
NATIONAL WEATHER SERVICE BISMARCK ND
1000 AM CDT THU MAY 26 2016

NOTE: "FAIR" INDICATES FEW OR NO CLOUDS BELOW 12,000 FEET WITH NO
SIGNIFICANT WEATHER AND/OR OBSTRUCTIONS TO VISIBILITY.


NDZ001>003-009>011-017-261600-
NORTHWEST NORTH DAKOTA

CITY           SKY/WX    TMP DP  RH WIND       PRES   REMARKS
WILLISTON      CLOUDY    50  48  93 SW7       29.82R FOG
MINOT          CLOUDY    61  55  81 NW8       29.77S
MINOT AFB      LGT RAIN  56  55  97 NE10      29.77S
$$

NDZ018>021-031>035-040>046-261600-
SOUTHWEST NORTH DAKOTA

CITY           SKY/WX    TMP DP  RH WIND       PRES   REMARKS
BISMARCK       PTSUNNY   62  49  62 W3        29.83S
DICKINSON      SUNNY     57  45  64 NW10      29.83S
GARRISON         N/A     57  52  83 W9        29.80S
HETTINGER ARPT SUNNY     60  47  61 W13       29.87F
$$

NDZ004>008-012>016-024-026-027-054-261600-
NORTHEAST NORTH DAKOTA

CITY           SKY/WX    TMP DP  RH WIND       PRES   REMARKS
GRAND FORKS    PTSUNNY   64  56  75 W14       29.72S
GRND FRKS AFB  PTSUNNY   63  57  82 W10       29.73S
DEVILS LAKE    CLOUDY    58  54  86 NW6       29.76S
$$

NDZ022-023-025-028>030-036>039-047>053-261600-
SOUTHEAST NORTH DAKOTA

CITY           SKY/WX    TMP DP  RH WIND       PRES   REMARKS
FARGO          CLOUDY    60  56  86 SW7       29.76S
JAMESTOWN      CLOUDY    57  53  86 W14       29.79R
$$





USA.gov is the U.S. government's official web portal to all federal, state and local government web resources and services.